Torna al catalogo

THORAD AGENA D DEB

AttivoSSO
NORAD 4652·DEBRIS·🇺🇸 United States

Lanciato Apr 8, 1970 da Vandenberg Space Force Base

Loading…

Prossimi Passaggi (prossime 24 ore)

TLE

AggiornatoSource: Space-Track

Epoca: Sep 14, 2026, 21:53 UTC

1 04652U 70025AL  26257.91234823  .00000668  00000-0  57086-3 0  9994
2 04652  99.6299  55.5254 0029702 344.3345 169.0553 13.90793441829699

Traccia THORAD AGENA D DEB in tempo reale con AllMySat

Download on the App Store